GW2476 Weather Reports


Display with metric or nautical units.
time (UTC)temp
F
wind
direction
speed
MPH
gust
MPH
rain 1hr
in
rain 24hr
in
rain mn
in
humidity
%
barometer
mb
20260504185021 71 175 3.0 7.0 0.00 0.00 0.00 46 1008.7
20260504184516 72 172 8.0 11.0 0.00 0.00 0.00 42 1008.4
20260504184012 72 157 3.0 10.0 0.00 0.00 0.00 42 1008.9
20260504183509 73 211 5.0 7.0 0.00 0.00 0.00 43 1008.8
20260504183008 73 79 3.0 5.0 0.00 0.00 0.00 45 1009.0
20260504182504 71 201 5.0 6.0 0.00 0.00 0.00 43 1008.9
20260504182001 71 250 3.0 7.0 0.00 0.00 0.00 41 1008.9
20260504181458 71 207 5.0 7.0 0.00 0.00 0.00 40 1009.0
20260504180956 71 216 7.0 13.0 0.00 0.00 0.00 41 1009.0
20260504180455 71 252 4.0 6.0 0.00 0.00 0.00 38 1009.3
20260504175953 70 197 5.0 8.0 0.00 0.00 0.00 42 1009.4
20260504175450 71 336 2.0 6.0 0.00 0.00 0.00 40 1009.4
20260504174947 70 225 5.0 7.0 0.00 0.00 0.00 41 1009.2
20260504174445 71 263 3.0 9.0 0.00 0.00 0.00 41 1009.4
20260504173942 70 349 3.0 10.0 0.00 0.00 0.00 41 1009.4
20260504173438 69 115 3.0 5.0 0.00 0.00 0.00 47 1009.4
20260504172936 71 3 1.0 6.0 0.00 0.00 0.00 41 1009.5
20260504172432 72 239 2.0 5.0 0.00 0.00 0.00 44 1009.4
20260504171929 69 343 4.0 5.0 0.00 0.00 0.00 42 1009.4
20260504171426 69 168 2.0 6.0 0.00 0.00 0.00 48 1009.5
20260504170923 69 190 5.0 6.0 0.00 0.00 0.00 50 1009.8
20260504170419 68 180 5.0 7.0 0.00 0.00 0.00 41 1009.5
20260504160338 66 222 3.0 3.0 0.00 0.00 0.00 44 1010.5
20260504150802 63 231 3.0 6.0 0.00 0.00 0.00 47 1011.2
20260504150259 62 170 2.0 3.0 0.00 0.00 0.00 45 1011.4
20260504141229 60 259 3.0 3.0 0.00 0.00 0.00 46 1011.7
20260504140725 61 199 3.0 5.0 0.00 0.00 0.00 47 1011.8
20260504140221 60 218 5.0 9.0 0.00 0.00 0.00 48 1012.0
20260504130650 56 28 1.0 3.0 0.00 0.00 0.00 53 1012.2
20260504130146 56 71 2.0 6.0 0.00 0.00 0.00 55 1012.4
20260504120110 51 324 3.0 5.0 0.00 0.00 0.00 67 1012.5
20260504110538 41 56 1.0 1.0 0.00 0.00 0.00 93 1012.7
20260504100454 36 1 1.0 2.0 0.00 0.00 0.00 98 1012.7
20260504081847 35 45 0.0 1.0 0.00 0.00 0.00 97 1012.8
20260504081343 36 52 1.0 1.0 0.00 0.00 0.00 97 1012.9
20260504080839 35 46 0.0 1.0 0.00 0.00 0.00 97 1012.9
20260504080337 36 34 1.0 1.0 0.00 0.00 0.00 97 1012.9
20260504070304 37 14 0.0 1.0 0.00 0.00 0.00 95 1012.9
20260504060224 37 41 1.0 1.0 0.00 0.00 0.00 96 1012.9
20260504050652 39 21 0.0 1.0 0.00 0.00 0.00 94 1013.0
20260504050149 38 345 1.0 1.0 0.00 0.00 0.00 94 1012.9
20260504045646 39 24 0.0 1.0 0.00 0.00 0.00 94 1013.1
20260504045146 39 42 0.0 2.0 0.00 0.00 0.00 93 1013.0
20260504044644 39 39 0.0 1.0 0.00 0.00 0.00 93 1012.9
20260504044141 39 36 0.0 1.0 0.00 0.00 0.00 93 1012.9
20260504043638 39 36 0.0 1.0 0.00 0.00 0.00 93 1013.0
20260504043135 39 40 0.0 1.0 0.00 0.00 0.00 92 1012.8
20260504042632 39 38 0.0 1.0 0.00 0.00 0.00 92 1013.0
20260504042129 39 14 0.0 1.0 0.00 0.00 0.00 92 1013.1
20260504041625 39 32 1.0 3.0 0.00 0.00 0.00 91 1012.9
20260504041121 40 26 0.0 1.0 0.00 0.00 0.00 91 1012.9
20260504040619 39 35 0.0 1.0 0.00 0.00 0.00 90 1012.9
20260504040115 40 64 0.0 1.0 0.00 0.00 0.00 91 1012.6
20260504035612 39 23 0.0 1.0 0.00 0.00 0.00 91 1012.8
20260504035108 39 19 1.0 1.0 0.00 0.00 0.00 90 1012.7
20260504034606 40 46 1.0 1.0 0.00 0.00 0.00 90 1012.8
20260504034103 40 29 0.0 1.0 0.00 0.00 0.00 90 1012.6
20260504033601 40 16 0.0 1.0 0.00 0.00 0.00 90 1012.8
20260504033058 40 35 0.0 1.0 0.00 0.00 0.00 90 1012.8
20260504032555 41 18 0.0 1.0 0.00 0.00 0.00 90 1012.8
20260504032052 41 14 0.0 1.0 0.00 0.00 0.00 91 1012.7
20260504031549 41 3 1.0 2.0 0.00 0.00 0.00 90 1012.6
20260504031045 41 5 1.0 1.0 0.00 0.00 0.00 90 1012.8
20260504030542 41 39 0.0 2.0 0.00 0.00 0.00 89 1012.8
20260504030038 41 33 0.0 1.0 0.00 0.00 0.00 88 1012.7
20260504025536 41 31 1.0 1.0 0.00 0.00 0.00 87 1012.9
20260504025032 42 32 1.0 1.0 0.00 0.00 0.00 88 1012.8
20260504024529 42 348 1.0 2.0 0.00 0.00 0.00 85 1012.9
20260504024026 42 25 0.0 1.0 0.00 0.00 0.00 84 1013.0
20260504023523 43 25 0.0 2.0 0.00 0.00 0.00 86 1013.0
20260504023018 43 22 0.0 1.0 0.00 0.00 0.00 85 1012.9
20260504022514 43 16 1.0 1.0 0.00 0.00 0.00 84 1012.9
20260504022011 43 359 0.0 1.0 0.00 0.00 0.00 84 1012.9
20260504021509 44 25 0.0 1.0 0.00 0.00 0.00 84 1012.8
20260504021006 44 39 1.0 1.0 0.00 0.00 0.00 84 1012.8
20260504020502 44 56 1.0 2.0 0.00 0.00 0.00 84 1013.0
20260504015959 45 40 0.0 0.0 0.00 0.00 0.00 83 1012.8
20260504015455 45 49 0.0 1.0 0.00 0.00 0.00 83 1012.8
20260504014951 45 8 0.0 3.0 0.00 0.00 0.00 81 1012.6
20260504014447 46 19 0.0 1.0 0.00 0.00 0.00 81 1012.5
20260504013944 46 19 1.0 2.0 0.00 0.00 0.00 80 1012.6
20260504013443 46 37 1.0 1.0 0.00 0.00 0.00 80 1012.5
20260504012938 47 14 0.0 1.0 0.00 0.00 0.00 78 1012.5
20260504012437 48 15 0.0 1.0 0.00 0.00 0.00 77 1012.6
20260504011934 48 15 0.0 1.0 0.00 0.00 0.00 74 1012.4
20260504011431 48 32 0.0 1.0 0.00 0.00 0.00 75 1012.5
20260504010926 48 22 0.0 1.0 0.00 0.00 0.00 75 1012.5
20260504010423 48 56 0.0 0.0 0.00 0.00 0.00 73 1012.4
20260504005919 48 17 0.0 1.0 0.00 0.00 0.00 75 1012.3
20260504005415 48 16 0.0 1.0 0.00 0.00 0.00 73 1012.3
20260504004913 49 20 0.0 1.0 0.00 0.00 0.00 73 1012.4
20260504004411 49 19 0.0 0.0 0.00 0.00 0.00 72 1012.4
20260504003908 50 19 0.0 1.0 0.00 0.00 0.00 71 1012.2
20260504003404 51 8 0.0 1.0 0.00 0.00 0.00 68 1012.0
20260504002900 51 10 1.0 1.0 0.00 0.00 0.00 65 1012.0
20260504002358 52 55 1.0 1.0 0.00 0.00 0.00 63 1011.9
20260504001855 53 55 0.0 1.0 0.00 0.00 0.00 60 1011.9
20260504001353 53 78 1.0 3.0 0.00 0.00 0.00 56 1011.9
20260504000849 54 351 1.0 2.0 0.00 0.00 0.00 53 1011.8
20260504000346 54 19 1.0 2.0 0.00 0.00 0.00 53 1011.9
20260503235844 54 22 0.0 1.0 0.00 0.00 0.00 52 1012.0
20260503235341 55 23 0.0 1.0 0.00 0.00 0.00 52 1011.7
20260503234838 56 23 0.0 1.0 0.00 0.00 0.00 51 1011.8
20260503234336 56 355 0.0 1.0 0.00 0.00 0.00 47 1011.7
20260503233834 57 355 0.0 0.0 0.00 0.00 0.00 47 1011.8
20260503233329 58 353 0.0 1.0 0.00 0.00 0.00 43 1011.7
20260503232826 58 355 1.0 1.0 0.00 0.00 0.00 41 1011.7
20260503232323 58 349 1.0 5.0 0.00 0.00 0.00 43 1011.8
20260503231821 58 271 3.0 5.0 0.00 0.00 0.00 41 1011.7
20260503231318 58 321 2.0 3.0 0.00 0.00 0.00 40 1011.8
20260503230814 58 334 3.0 5.0 0.00 0.00 0.00 41 1011.6
20260503230311 58 307 2.0 3.0 0.00 0.00 0.00 43 1011.7
20260503225809 58 333 1.0 2.0 0.00 0.00 0.00 45 1011.8
20260503225305 58 355 0.0 2.0 0.00 0.00 0.00 49 1011.7
20260503224801 57 3 0.0 1.0 0.00 0.00 0.00 47 1011.6
20260503224258 58 12 0.0 1.0 0.00 0.00 0.00 45 1011.8
20260503223756 58 12 0.0 1.0 0.00 0.00 0.00 44 1011.6
20260503223253 58 31 0.0 5.0 0.00 0.00 0.00 43 1011.6
20260503222749 58 14 2.0 3.0 0.00 0.00 0.00 45 1011.7
20260503222247 58 11 0.0 3.0 0.00 0.00 0.00 44 1011.6
20260503221746 58 15 0.0 3.0 0.00 0.00 0.00 44 1011.7
20260503221243 58 57 1.0 1.0 0.00 0.00 0.00 44 1011.7
20260503220739 58 11 0.0 2.0 0.00 0.00 0.00 44 1011.8
20260503220236 58 43 1.0 3.0 0.00 0.00 0.00 45 1011.8
20260503215733 58 340 2.0 6.0 0.00 0.00 0.00 43 1011.9
20260503215230 58 45 1.0 2.0 0.00 0.00 0.00 44 1011.8
20260503214728 58 86 1.0 7.0 0.00 0.00 0.00 45 1011.9
20260503214225 58 305 3.0 5.0 0.00 0.00 0.00 44 1011.8
20260503213723 58 45 1.0 6.0 0.00 0.00 0.00 45 1011.8
20260503213220 57 18 1.0 2.0 0.00 0.00 0.00 44 1011.7
20260503212717 57 338 0.0 3.0 0.00 0.00 0.00 44 1011.8
20260503212214 59 20 5.0 7.0 0.00 0.00 0.00 43 1011.9
20260503211712 58 297 2.0 3.0 0.00 0.00 0.00 44 1011.7
20260503211208 59 25 3.0 8.0 0.00 0.00 0.00 42 1011.7
20260503210704 59 21 2.0 6.0 0.00 0.00 0.00 42 1011.7
20260503210201 58 49 2.0 6.0 0.00 0.00 0.00 45 1011.7
20260503205655 58 291 2.0 8.0 0.00 0.00 0.00 40 1011.7
20260503205152 60 333 2.0 9.0 0.00 0.00 0.00 43 1011.8
20260503204649 59 348 3.0 10.0 0.00 0.00 0.00 44 1011.9
20260503204147 58 286 3.0 7.0 0.00 0.00 0.00 45 1011.7
20260503203643 57 35 2.0 7.0 0.00 0.00 0.00 46 1011.8
20260503203141 57 42 2.0 7.0 0.00 0.00 0.00 44 1011.7
20260503202638 60 27 6.0 9.0 0.00 0.00 0.00 42 1011.9
20260503202137 58 15 3.0 6.0 0.00 0.00 0.00 40 1011.9
20260503201634 58 345 7.0 9.0 0.00 0.00 0.00 43 1011.9
20260503201131 57 315 3.0 3.0 0.00 0.00 0.00 43 1011.8
20260503200627 58 11 1.0 5.0 0.00 0.00 0.00 46 1012.0
20260503200124 59 309 2.0 10.0 0.00 0.00 0.00 44 1012.0
20260503195621 58 16 2.0 8.0 0.00 0.00 0.00 46 1012.0
20260503195118 57 324 4.0 9.0 0.00 0.00 0.00 41 1012.4
20260503194615 57 332 5.0 8.0 0.00 0.00 0.00 41 1012.1
20260503194110 57 334 5.0 9.0 0.00 0.00 0.00 40 1012.2
20260503193607 58 351 8.0 16.0 0.00 0.00 0.00 39 1012.3
20260503193102 60 25 3.0 8.0 0.00 0.00 0.00 43 1012.2
20260503192558 57 116 1.0 3.0 0.00 0.00 0.00 43 1012.3
20260503192054 57 219 4.0 7.0 0.00 0.00 0.00 40 1012.4
20260503191551 57 347 5.0 8.0 0.00 0.00 0.00 40 1012.4
20260503191048 57 15 1.0 9.0 0.00 0.00 0.00 43 1012.4
20260503190545 58 3 4.0 6.0 0.00 0.00 0.00 38 1012.4
20260503190042 57 357 5.0 8.0 0.00 0.00 0.00 40 1012.3
20260503185538 57 342 2.0 7.0 0.00 0.00 0.00 42 1012.6